Back to catalog

STARLINK-35110

AliveCommunicationsSSO
NORAD 65539·PAYLOAD·🇺🇸 United States

Launched Sep 6, 2025 from Cape Canaveral Space Force Station

Loading…

Next Passes (next 24 hours)

TLE

FreshSource: CelesTrak SupGP

Epoch: Sep 14, 2026, 23:16 UTC

1 65539C 25200V   26257.96993056  .00031277  00000+0  97109-3 0  2571
2 65539  97.2845 324.4764 0000924  92.2916   0.3641 15.33418552    11

Track STARLINK-35110 in real time with AllMySat

Download on the App Store